Volver al catálogo

STARLINK-2161

ActivoComunicacionesVLEO
NORAD 47747·PAYLOAD·🇺🇸 United States

Lanzado Mar 4, 2021 desde Cape Canaveral Space Force Station

Loading…

Próximos Pases (próximas 24 horas)

TLE

ActualizadoSource: CelesTrak SupGP

Época: Sep 14, 2026, 20:46 UTC

1 47747C 21017AB  26257.86576389  .00042270  00000+0  13592-2 0  2577
2 47747  53.1590  33.5158 0001078  90.3122 221.9005 15.31683771    14

Sigue STARLINK-2161 en tiempo real con AllMySat

Download on the App Store